| time (UTC) | temp F | wind direction | speed knots | gust knots | rain 1hr in | rain 24hr in | rain mn in | humidity % | barometer mb |
| 20260902113225 | 57 | 151 | 0.0 | 0.0 | 0.00 | 0.00 | 0.00 | 96 | 1011.0 |
| 20260902112724 | 57 | 153 | 0.0 | 0.0 | 0.00 | 0.00 | 0.00 | 96 | 1011.3 |
| 20260902112221 | 57 | 154 | 0.0 | 0.0 | 0.00 | 0.00 | 0.00 | 96 | 1011.3 |
| 20260902111716 | 57 | 154 | 0.0 | 0.0 | 0.00 | 0.00 | 0.00 | 96 | 1011.3 |
| 20260902111213 | 57 | 148 | 0.0 | 0.0 | 0.00 | 0.00 | 0.00 | 96 | 1011.3 |
| 20260902110708 | 57 | 148 | 0.0 | 0.0 | 0.00 | 0.00 | 0.00 | 96 | 1011.5 |
| 20260902110204 | 57 | 138 | 0.0 | 0.0 | 0.00 | 0.00 | 0.00 | 96 | 1011.6 |
| 20260902105703 | 57 | 144 | 0.0 | 0.0 | 0.00 | 0.00 | 0.00 | 96 | 1011.5 |
| 20260902105159 | 57 | 156 | 0.0 | 0.0 | 0.00 | 0.00 | 0.00 | 96 | 1011.7 |
| 20260902104654 | 57 | 156 | 0.0 | 0.0 | 0.00 | 0.00 | 0.00 | 96 | 1011.4 |
| 20260902104150 | 57 | 157 | 0.0 | 0.0 | 0.00 | 0.00 | 0.00 | 96 | 1011.5 |
| 20260902103649 | 57 | 153 | 0.0 | 0.0 | 0.00 | 0.00 | 0.00 | 96 | 1011.5 |
| 20260902103144 | 57 | 170 | 0.0 | 0.0 | 0.00 | 0.00 | 0.00 | 95 | 1011.6 |
| 20260902102640 | 57 | 161 | 0.0 | 0.0 | 0.00 | 0.00 | 0.00 | 95 | 1011.7 |
| 20260902102137 | 57 | 148 | 0.0 | 0.0 | 0.00 | 0.00 | 0.00 | 95 | 1011.8 |
| 20260902101632 | 57 | 148 | 0.0 | 0.0 | 0.00 | 0.00 | 0.00 | 95 | 1011.8 |
| 20260902101126 | 57 | 147 | 0.0 | 0.0 | 0.00 | 0.00 | 0.00 | 95 | 1012.0 |
| 20260902100621 | 57 | 156 | 0.0 | 0.0 | 0.00 | 0.00 | 0.00 | 95 | 1011.7 |
| 20260902100116 | 57 | 140 | 0.0 | 0.0 | 0.00 | 0.00 | 0.00 | 95 | 1012.0 |
| 20260902095615 | 57 | 148 | 0.0 | 0.0 | 0.00 | 0.00 | 0.00 | 95 | 1011.8 |
| 20260902095115 | 57 | 148 | 0.0 | 0.0 | 0.00 | 0.00 | 0.00 | 95 | 1011.9 |
| 20260902094610 | 57 | 143 | 0.0 | 0.0 | 0.00 | 0.00 | 0.00 | 95 | 1011.7 |
| 20260902094106 | 57 | 140 | 0.0 | 0.0 | 0.00 | 0.00 | 0.00 | 94 | 1012.0 |
| 20260902093605 | 57 | 137 | 0.0 | 0.0 | 0.00 | 0.00 | 0.00 | 94 | 1011.9 |
| 20260902093100 | 58 | 147 | 0.0 | 0.0 | 0.00 | 0.00 | 0.00 | 94 | 1012.1 |
| 20260902092555 | 58 | 149 | 0.0 | 0.0 | 0.00 | 0.00 | 0.00 | 94 | 1011.7 |
| 20260902092050 | 58 | 156 | 0.0 | 0.0 | 0.00 | 0.00 | 0.00 | 94 | 1011.6 |
| 20260902091545 | 59 | 154 | 0.0 | 0.0 | 0.00 | 0.00 | 0.00 | 93 | 1011.8 |
| 20260902091041 | 59 | 145 | 0.0 | 0.0 | 0.00 | 0.00 | 0.00 | 93 | 1012.0 |
| 20260902090537 | 59 | 160 | 0.0 | 0.0 | 0.00 | 0.00 | 0.00 | 93 | 1011.9 |
| 20260902090036 | 59 | 148 | 0.0 | 0.0 | 0.00 | 0.00 | 0.00 | 93 | 1011.9 |
| 20260902085530 | 59 | 148 | 0.0 | 0.0 | 0.00 | 0.00 | 0.00 | 93 | 1012.2 |
| 20260902085025 | 59 | 155 | 0.0 | 0.0 | 0.00 | 0.00 | 0.00 | 93 | 1012.3 |
| 20260902084521 | 59 | 131 | 0.0 | 0.0 | 0.00 | 0.00 | 0.00 | 94 | 1012.0 |
| 20260902084017 | 59 | 156 | 0.0 | 0.9 | 0.00 | 0.00 | 0.00 | 94 | 1012.4 |
| 20260902083512 | 59 | 156 | 0.0 | 0.9 | 0.00 | 0.00 | 0.00 | 95 | 1012.5 |
| 20260902083006 | 59 | 215 | 2.6 | 2.6 | 0.00 | 0.00 | 0.00 | 95 | 1012.6 |
| 20260902082502 | 59 | 176 | 0.9 | 1.7 | 0.00 | 0.00 | 0.00 | 95 | 1012.5 |
| 20260902081958 | 59 | 149 | 0.0 | 0.0 | 0.00 | 0.00 | 0.00 | 95 | 1012.6 |
| 20260902081455 | 59 | 155 | 0.0 | 0.0 | 0.00 | 0.00 | 0.00 | 95 | 1012.4 |
| 20260902080949 | 59 | 154 | 0.0 | 0.0 | 0.00 | 0.00 | 0.00 | 95 | 1012.5 |
| 20260902080445 | 59 | 155 | 0.0 | 0.0 | 0.00 | 0.00 | 0.00 | 95 | 1012.3 |
| 20260902075939 | 59 | 152 | 0.0 | 0.0 | 0.00 | 0.00 | 0.00 | 95 | 1012.6 |
| 20260902075436 | 59 | 154 | 0.0 | 0.0 | 0.00 | 0.00 | 0.00 | 95 | 1012.5 |
| 20260902074931 | 59 | 150 | 0.0 | 0.0 | 0.00 | 0.00 | 0.00 | 95 | 1012.5 |
| 20260902074426 | 59 | 158 | 0.0 | 0.0 | 0.00 | 0.00 | 0.00 | 94 | 1012.4 |
| 20260902073921 | 59 | 151 | 0.0 | 0.0 | 0.00 | 0.00 | 0.00 | 94 | 1012.6 |
| 20260902073417 | 59 | 142 | 0.0 | 0.0 | 0.00 | 0.00 | 0.00 | 94 | 1012.7 |
| 20260902072913 | 59 | 155 | 0.0 | 0.0 | 0.00 | 0.00 | 0.00 | 94 | 1012.4 |
| 20260902072409 | 59 | 148 | 0.0 | 0.0 | 0.00 | 0.00 | 0.00 | 94 | 1012.7 |
| 20260902071905 | 59 | 149 | 0.0 | 0.0 | 0.00 | 0.00 | 0.00 | 94 | 1012.6 |
| 20260902071404 | 59 | 148 | 0.0 | 0.0 | 0.00 | 0.00 | 0.00 | 93 | 1012.4 |
| 20260902070901 | 59 | 163 | 0.0 | 0.9 | 0.00 | 0.00 | 0.00 | 93 | 1012.6 |
| 20260902070356 | 59 | 154 | 0.0 | 0.0 | 0.00 | 0.00 | 0.00 | 93 | 1012.4 |
| 20260902065854 | 59 | 154 | 0.0 | 0.0 | 0.00 | 0.01 | 0.01 | 93 | 1012.8 |
| 20260902065349 | 59 | 149 | 0.0 | 0.9 | 0.00 | 0.01 | 0.01 | 93 | 1012.7 |
| 20260902064844 | 59 | 155 | 0.9 | 0.9 | 0.00 | 0.01 | 0.01 | 93 | 1012.7 |
| 20260902064341 | 59 | 148 | 0.0 | 0.0 | 0.00 | 0.01 | 0.01 | 92 | 1012.7 |
| 20260902063836 | 59 | 149 | 0.0 | 0.0 | 0.00 | 0.01 | 0.01 | 92 | 1012.8 |
| 20260902063331 | 59 | 147 | 0.0 | 0.0 | 0.00 | 0.01 | 0.01 | 92 | 1012.9 |
| 20260902062830 | 59 | 151 | 0.0 | 0.0 | 0.00 | 0.01 | 0.01 | 92 | 1012.9 |
| 20260902062325 | 60 | 156 | 0.0 | 0.9 | 0.00 | 0.01 | 0.01 | 92 | 1012.9 |
| 20260902061825 | 60 | 153 | 0.0 | 0.0 | 0.00 | 0.01 | 0.01 | 91 | 1012.9 |
| 20260902061320 | 60 | 148 | 0.0 | 0.9 | 0.00 | 0.01 | 0.01 | 91 | 1012.8 |
| 20260902060816 | 60 | 159 | 0.0 | 0.0 | 0.00 | 0.01 | 0.01 | 91 | 1013.1 |
| 20260902060312 | 60 | 160 | 0.0 | 0.0 | 0.00 | 0.01 | 0.01 | 90 | 1012.9 |
| 20260902055807 | 60 | 154 | 0.0 | 0.9 | 0.00 | 0.01 | 0.01 | 90 | 1012.8 |
| 20260902055258 | 60 | 131 | 1.7 | 1.7 | 0.00 | 0.01 | 0.01 | 90 | 1012.9 |
| 20260902054758 | 60 | 170 | 0.9 | 0.9 | 0.00 | 0.01 | 0.01 | 90 | 1013.1 |
| 20260902054254 | 60 | 170 | 0.0 | 0.9 | 0.00 | 0.01 | 0.01 | 89 | 1013.0 |
| 20260902053749 | 60 | 178 | 0.9 | 1.7 | 0.00 | 0.01 | 0.01 | 89 | 1013.2 |
| 20260902053248 | 60 | 157 | 0.9 | 4.3 | 0.00 | 0.01 | 0.01 | 89 | 1013.1 |
| 20260902052749 | 60 | 175 | 2.6 | 5.2 | 0.00 | 0.01 | 0.01 | 89 | 1013.2 |
| 20260902052244 | 60 | 195 | 1.7 | 1.7 | 0.00 | 0.01 | 0.01 | 90 | 1013.2 |
| 20260902051743 | 60 | 228 | 2.6 | 2.6 | 0.00 | 0.01 | 0.01 | 91 | 1013.4 |
| 20260902051238 | 60 | 211 | 1.7 | 4.3 | 0.00 | 0.01 | 0.01 | 92 | 1013.3 |
| 20260902050733 | 60 | 175 | 0.9 | 0.9 | 0.00 | 0.01 | 0.01 | 93 | 1013.1 |
| 20260902050228 | 60 | 153 | 0.0 | 1.7 | 0.00 | 0.01 | 0.01 | 94 | 1013.3 |
| 20260902045728 | 60 | 146 | 0.0 | 0.0 | 0.00 | 0.01 | 0.01 | 95 | 1013.1 |
| 20260902045224 | 60 | 157 | 0.0 | 0.0 | 0.00 | 0.01 | 0.01 | 95 | 1013.1 |
| 20260902044720 | 60 | 156 | 0.0 | 0.0 | 0.00 | 0.01 | 0.01 | 95 | 1013.2 |
| 20260902044215 | 60 | 152 | 0.0 | 0.0 | 0.00 | 0.01 | 0.01 | 95 | 1013.3 |
| 20260902043715 | 60 | 153 | 0.0 | 0.0 | 0.00 | 0.01 | 0.01 | 95 | 1013.2 |
| 20260902043211 | 60 | 152 | 0.0 | 0.0 | 0.00 | 0.01 | 0.01 | 95 | 1013.2 |
| 20260902042710 | 60 | 148 | 0.0 | 0.0 | 0.00 | 0.01 | 0.01 | 95 | 1013.4 |
| 20260902042205 | 60 | 148 | 0.0 | 0.0 | 0.00 | 0.01 | 0.01 | 95 | 1013.3 |
| 20260902041700 | 60 | 152 | 0.0 | 0.0 | 0.00 | 0.01 | 0.01 | 95 | 1013.1 |
| 20260902041154 | 60 | 149 | 0.0 | 0.0 | 0.00 | 0.01 | 0.01 | 94 | 1013.3 |
| 20260902040654 | 60 | 153 | 0.0 | 0.0 | 0.00 | 0.01 | 0.01 | 94 | 1013.3 |
| 20260902040149 | 59 | 147 | 0.0 | 0.0 | 0.00 | 0.01 | 0.01 | 94 | 1013.2 |
| 20260902035647 | 59 | 143 | 0.0 | 0.0 | 0.00 | 0.01 | 0.01 | 94 | 1013.4 |
| 20260902035144 | 59 | 140 | 0.0 | 0.0 | 0.00 | 0.01 | 0.01 | 94 | 1013.3 |
| 20260902034643 | 59 | 133 | 0.9 | 0.9 | 0.00 | 0.01 | 0.01 | 94 | 1013.3 |
| 20260902034143 | 59 | 130 | 0.9 | 0.9 | 0.00 | 0.01 | 0.01 | 93 | 1013.1 |
| 20260902033642 | 59 | 147 | 0.0 | 0.0 | 0.00 | 0.01 | 0.01 | 93 | 1013.2 |
| 20260902033137 | 59 | 143 | 0.0 | 0.0 | 0.00 | 0.01 | 0.01 | 93 | 1013.0 |
| 20260902032635 | 59 | 152 | 0.0 | 0.0 | 0.00 | 0.01 | 0.01 | 93 | 1013.2 |
| 20260902032135 | 59 | 139 | 0.0 | 0.9 | 0.00 | 0.01 | 0.01 | 92 | 1013.2 |
| 20260902031630 | 60 | 144 | 0.0 | 0.0 | 0.00 | 0.01 | 0.01 | 92 | 1013.0 |
| 20260902031126 | 60 | 145 | 0.9 | 0.9 | 0.00 | 0.01 | 0.01 | 92 | 1013.1 |
| 20260902030622 | 60 | 144 | 0.0 | 0.0 | 0.00 | 0.01 | 0.01 | 91 | 1013.0 |
| 20260902030121 | 60 | 172 | 1.7 | 1.7 | 0.00 | 0.01 | 0.01 | 91 | 1013.1 |
| 20260902025620 | 60 | 90 | 0.9 | 0.9 | 0.00 | 0.01 | 0.01 | 91 | 1012.8 |
| 20260902025116 | 60 | 160 | 0.0 | 1.7 | 0.07 | 0.01 | 0.01 | 90 | 1013.0 |
| 20260902024611 | 60 | 160 | 0.9 | 4.3 | 0.00 | 0.00 | 0.00 | 89 | 1013.1 |
| 20260902024106 | 60 | 187 | 0.9 | 2.6 | 0.00 | 0.00 | 0.00 | 88 | 1013.0 |
| 20260902023602 | 61 | 157 | 3.5 | 5.2 | 0.00 | 0.00 | 0.00 | 86 | 1013.1 |
| 20260902023057 | 61 | 154 | 0.9 | 5.2 | 0.00 | 0.00 | 0.00 | 85 | 1013.1 |
| 20260902022556 | 62 | 216 | 6.1 | 11.3 | 0.00 | 0.00 | 0.00 | 82 | 1013.0 |
| 20260902022053 | 62 | 190 | 4.3 | 13.0 | 0.00 | 0.00 | 0.00 | 81 | 1012.8 |
| 20260902021547 | 63 | 119 | 4.3 | 5.2 | 0.00 | 0.00 | 0.00 | 81 | 1013.1 |
| 20260902021042 | 63 | 197 | 0.9 | 1.7 | 0.00 | 0.00 | 0.00 | 80 | 1012.9 |
| 20260902020538 | 63 | 124 | 4.3 | 6.1 | 0.00 | 0.00 | 0.00 | 81 | 1012.8 |
| 20260902020034 | 64 | 179 | 1.7 | 4.3 | 0.00 | 0.00 | 0.00 | 80 | 1012.8 |
| 20260902015530 | 64 | 187 | 0.9 | 2.6 | 0.00 | 0.00 | 0.00 | 80 | 1012.8 |
| 20260902015025 | 64 | 195 | 1.7 | 2.6 | 0.00 | 0.00 | 0.00 | 80 | 1012.8 |
| 20260902014521 | 64 | 183 | 1.7 | 2.6 | 0.00 | 0.00 | 0.00 | 80 | 1012.8 |
| 20260902014016 | 64 | 199 | 3.5 | 4.3 | 0.00 | 0.00 | 0.00 | 80 | 1012.8 |
| 20260902013511 | 64 | 159 | 0.9 | 2.6 | 0.00 | 0.00 | 0.00 | 79 | 1012.8 |
| 20260902013007 | 64 | 147 | 1.7 | 2.6 | 0.00 | 0.00 | 0.00 | 79 | 1012.7 |
| 20260902012502 | 64 | 168 | 1.7 | 1.7 | 0.00 | 0.00 | 0.00 | 79 | 1012.8 |
| 20260902011957 | 64 | 191 | 2.6 | 6.1 | 0.00 | 0.00 | 0.00 | 78 | 1012.7 |
| 20260902011453 | 64 | 201 | 1.7 | 2.6 | 0.00 | 0.00 | 0.00 | 78 | 1012.8 |
| 20260902010952 | 63 | 158 | 0.9 | 2.6 | 0.00 | 0.00 | 0.00 | 79 | 1012.6 |
| 20260902010447 | 63 | 181 | 0.9 | 4.3 | 0.00 | 0.00 | 0.00 | 80 | 1012.8 |
| 20260902005946 | 63 | 191 | 3.5 | 6.1 | 0.00 | 0.00 | 0.00 | 80 | 1012.9 |
| 20260902005445 | 64 | 156 | 2.6 | 5.2 | 0.00 | 0.00 | 0.00 | 79 | 1012.9 |
| 20260902004942 | 64 | 160 | 2.6 | 2.6 | 0.00 | 0.00 | 0.00 | 79 | 1013.1 |
| 20260902004441 | 64 | 202 | 5.2 | 7.0 | 0.00 | 0.00 | 0.00 | 78 | 1013.0 |
| 20260902003937 | 64 | 173 | 0.9 | 4.3 | 0.00 | 0.00 | 0.00 | 77 | 1012.8 |
| 20260902003436 | 64 | 199 | 2.6 | 5.2 | 0.00 | 0.00 | 0.00 | 77 | 1012.9 |
| 20260902002932 | 64 | 165 | 2.6 | 4.3 | 0.00 | 0.00 | 0.00 | 77 | 1012.8 |
| 20260902002426 | 64 | 219 | 4.3 | 6.1 | 0.00 | 0.00 | 0.00 | 78 | 1012.9 |
| 20260902001926 | 64 | 205 | 2.6 | 4.3 | 0.00 | 0.00 | 0.00 | 80 | 1012.9 |
| 20260902001421 | 63 | 158 | 3.5 | 6.1 | 0.00 | 0.00 | 0.00 | 81 | 1013.0 |
| 20260902000916 | 63 | 197 | 2.6 | 5.2 | 0.00 | 0.00 | 0.00 | 81 | 1012.9 |
| 20260902000411 | 64 | 156 | 0.9 | 2.6 | 0.00 | 0.00 | 0.00 | 80 | 1012.8 |
| 20260901235907 | 63 | 148 | 0.9 | 5.2 | 0.00 | 0.00 | 0.00 | 81 | 1012.9 |
| 20260901235406 | 63 | 155 | 2.6 | 5.2 | 0.00 | 0.00 | 0.00 | 81 | 1012.7 |
| 20260901234901 | 64 | 172 | 3.5 | 9.6 | 0.00 | 0.00 | 0.00 | 80 | 1012.9 |
| 20260901234355 | 64 | 199 | 2.6 | 6.1 | 0.00 | 0.00 | 0.00 | 79 | 1013.0 |
| 20260901233850 | 64 | 220 | 4.3 | 7.0 | 0.00 | 0.00 | 0.00 | 78 | 1013.0 |
| 20260901233346 | 65 | 199 | 6.1 | 8.7 | 0.00 | 0.00 | 0.00 | 77 | 1012.7 |
| 20260901232842 | 65 | 196 | 4.3 | 6.1 | 0.00 | 0.00 | 0.00 | 77 | 1012.9 |
| 20260901232337 | 65 | 286 | 5.2 | 7.0 | 0.00 | 0.00 | 0.00 | 77 | 1012.9 |
| 20260901231832 | 64 | 211 | 4.3 | 7.8 | 0.00 | 0.00 | 0.00 | 77 | 1012.8 |
| 20260901231329 | 64 | 193 | 4.3 | 7.0 | 0.00 | 0.00 | 0.00 | 78 | 1013.0 |
| 20260901230825 | 64 | 224 | 1.7 | 2.6 | 0.00 | 0.00 | 0.00 | 79 | 1012.9 |
| 20260901230324 | 63 | 169 | 0.9 | 6.1 | 0.00 | 0.00 | 0.00 | 79 | 1012.9 |
| 20260901225820 | 64 | 216 | 3.5 | 6.1 | 0.00 | 0.00 | 0.00 | 79 | 1012.7 |
| 20260901225319 | 64 | 188 | 3.5 | 7.0 | 0.00 | 0.00 | 0.00 | 79 | 1012.8 |
| 20260901224814 | 64 | 166 | 2.6 | 4.3 | 0.00 | 0.00 | 0.00 | 79 | 1013.0 |
| 20260901224311 | 64 | 191 | 2.6 | 4.3 | 0.00 | 0.00 | 0.00 | 78 | 1012.8 |
| 20260901223808 | 64 | 216 | 2.6 | 6.1 | 0.00 | 0.00 | 0.00 | 78 | 1012.9 |
| 20260901223308 | 64 | 176 | 1.7 | 2.6 | 0.00 | 0.00 | 0.00 | 78 | 1012.8 |
| 20260901222803 | 64 | 186 | 3.5 | 6.1 | 0.00 | 0.00 | 0.00 | 78 | 1012.9 |
| 20260901222254 | 64 | 182 | 6.1 | 7.0 | 0.00 | 0.00 | 0.00 | 77 | 1013.1 |
| 20260901221750 | 64 | 200 | 4.3 | 7.8 | 0.00 | 0.00 | 0.00 | 77 | 1013.0 |
| 20260901221245 | 64 | 150 | 4.3 | 5.2 | 0.00 | 0.00 | 0.00 | 77 | 1012.9 |
| 20260901220744 | 64 | 205 | 3.5 | 4.3 | 0.00 | 0.00 | 0.00 | 78 | 1013.0 |
| 20260901220238 | 64 | 189 | 6.1 | 6.1 | 0.00 | 0.00 | 0.00 | 78 | 1013.0 |
| 20260901215737 | 64 | 201 | 4.3 | 6.1 | 0.00 | 0.00 | 0.00 | 77 | 1012.9 |
| 20260901215231 | 64 | 145 | 2.6 | 4.3 | 0.00 | 0.00 | 0.00 | 77 | 1012.9 |
| 20260901214730 | 64 | 159 | 0.9 | 4.3 | 0.00 | 0.00 | 0.00 | 77 | 1013.0 |
| 20260901214229 | 64 | 241 | 5.2 | 6.1 | 0.00 | 0.00 | 0.00 | 76 | 1013.0 |
| 20260901213729 | 65 | 184 | 3.5 | 5.2 | 0.00 | 0.00 | 0.00 | 76 | 1013.0 |
| 20260901213224 | 65 | 183 | 4.3 | 5.2 | 0.00 | 0.00 | 0.00 | 75 | 1013.0 |
| 20260901212723 | 65 | 176 | 0.0 | 1.7 | 0.00 | 0.00 | 0.00 | 75 | 1012.9 |
| 20260901212219 | 65 | 156 | 4.3 | 7.0 | 0.00 | 0.00 | 0.00 | 75 | 1013.1 |
| 20260901211714 | 65 | 194 | 4.3 | 7.8 | 0.00 | 0.00 | 0.00 | 75 | 1012.9 |
| 20260901211211 | 65 | 172 | 2.6 | 5.2 | 0.00 | 0.00 | 0.00 | 76 | 1012.9 |
| 20260901210706 | 65 | 216 | 2.6 | 6.1 | 0.00 | 0.00 | 0.00 | 76 | 1013.1 |
| 20260901210201 | 64 | 184 | 1.7 | 4.3 | 0.00 | 0.00 | 0.00 | 76 | 1013.1 |
| 20260901205657 | 65 | 223 | 2.6 | 4.3 | 0.00 | 0.00 | 0.00 | 76 | 1013.0 |
| 20260901205152 | 65 | 250 | 1.7 | 7.8 | 0.00 | 0.00 | 0.00 | 76 | 1013.1 |
| 20260901204647 | 64 | 143 | 2.6 | 5.2 | 0.00 | 0.00 | 0.00 | 76 | 1013.2 |
| 20260901204142 | 64 | 198 | 2.6 | 6.1 | 0.00 | 0.00 | 0.00 | 76 | 1013.2 |
| 20260901203636 | 64 | 152 | 1.7 | 4.3 | 0.00 | 0.00 | 0.00 | 76 | 1013.1 |
| 20260901203131 | 64 | 145 | 0.9 | 6.1 | 0.00 | 0.00 | 0.00 | 76 | 1013.2 |
| 20260901202631 | 64 | 193 | 3.5 | 7.8 | 0.00 | 0.00 | 0.00 | 75 | 1013.2 |
| 20260901202127 | 65 | 174 | 3.5 | 6.1 | 0.00 | 0.00 | 0.00 | 75 | 1013.1 |
| 20260901201623 | 64 | 226 | 3.5 | 5.2 | 0.00 | 0.00 | 0.00 | 76 | 1013.1 |
| 20260901201122 | 64 | 203 | 3.5 | 5.2 | 0.00 | 0.00 | 0.00 | 76 | 1013.2 |
| 20260901200621 | 64 | 212 | 2.6 | 2.6 | 0.00 | 0.00 | 0.00 | 76 | 1013.2 |
| 20260901200116 | 65 | 223 | 2.6 | 2.6 | 0.00 | 0.00 | 0.00 | 76 | 1013.2 |
| 20260901195614 | 65 | 181 | 0.9 | 4.3 | 0.00 | 0.00 | 0.00 | 75 | 1013.3 |
| 20260901195114 | 65 | 115 | 0.9 | 2.6 | 0.00 | 0.00 | 0.00 | 75 | 1013.2 |
| 20260901194609 | 65 | 200 | 1.7 | 4.3 | 0.00 | 0.00 | 0.00 | 75 | 1013.2 |
| 20260901194105 | 65 | 176 | 1.7 | 2.6 | 0.00 | 0.00 | 0.00 | 75 | 1013.3 |
| 20260901193600 | 65 | 218 | 2.6 | 4.3 | 0.00 | 0.00 | 0.00 | 74 | 1013.1 |
| 20260901193054 | 65 | 200 | 2.6 | 4.3 | 0.00 | 0.00 | 0.00 | 75 | 1013.1 |
| 20260901192549 | 65 | 205 | 1.7 | 4.3 | 0.00 | 0.00 | 0.00 | 75 | 1013.3 |
| 20260901192045 | 66 | 193 | 2.6 | 5.2 | 0.00 | 0.00 | 0.00 | 73 | 1013.0 |
| 20260901191541 | 66 | 164 | 1.7 | 5.2 | 0.00 | 0.00 | 0.00 | 74 | 1013.3 |
| 20260901191037 | 66 | 165 | 4.3 | 6.1 | 0.00 | 0.00 | 0.00 | 74 | 1013.4 |
| 20260901190532 | 65 | 160 | 0.0 | 0.9 | 0.00 | 0.00 | 0.00 | 76 | 1013.3 |
| 20260901190032 | 65 | 172 | 2.6 | 4.3 | 0.00 | 0.00 | 0.00 | 76 | 1013.6 |
| 20260901185530 | 65 | 170 | 2.6 | 2.6 | 0.00 | 0.00 | 0.00 | 75 | 1013.4 |
| 20260901185029 | 65 | 191 | 1.7 | 5.2 | 0.00 | 0.00 | 0.00 | 75 | 1013.3 |
| 20260901184525 | 65 | 150 | 1.7 | 5.2 | 0.00 | 0.00 | 0.00 | 76 | 1013.6 |
| 20260901184020 | 64 | 201 | 2.6 | 4.3 | 0.00 | 0.00 | 0.00 | 76 | 1013.5 |
| 20260901183515 | 64 | 187 | 2.6 | 2.6 | 0.00 | 0.00 | 0.00 | 77 | 1013.6 |
| 20260901183011 | 64 | 176 | 3.5 | 6.1 | 0.00 | 0.00 | 0.00 | 76 | 1013.5 |
| 20260901182507 | 64 | 250 | 4.3 | 7.0 | 0.00 | 0.00 | 0.00 | 76 | 1013.5 |
| 20260901182007 | 64 | 191 | 2.6 | 5.2 | 0.00 | 0.00 | 0.00 | 76 | 1013.3 |
| 20260901181506 | 64 | 165 | 1.7 | 4.3 | 0.00 | 0.00 | 0.00 | 76 | 1013.4 |
| 20260901181005 | 64 | 174 | 0.0 | 2.6 | 0.00 | 0.00 | 0.00 | 77 | 1013.5 |
| 20260901180504 | 63 | 226 | 3.5 | 4.3 | 0.00 | 0.00 | 0.00 | 77 | 1013.2 |
| 20260901180003 | 64 | 201 | 4.3 | 5.2 | 0.00 | 0.00 | 0.00 | 77 | 1013.4 |
| 20260901175458 | 63 | 193 | 2.6 | 4.3 | 0.00 | 0.00 | 0.00 | 78 | 1013.2 |
| 20260901174953 | 63 | 159 | 0.9 | 5.2 | 0.00 | 0.00 | 0.00 | 79 | 1013.3 |
| 20260901174448 | 63 | 255 | 2.6 | 4.3 | 0.00 | 0.00 | 0.00 | 79 | 1013.1 |
| 20260901173944 | 63 | 199 | 2.6 | 6.1 | 0.00 | 0.00 | 0.00 | 79 | 1013.0 |
| 20260901173439 | 63 | 216 | 4.3 | 5.2 | 0.00 | 0.00 | 0.00 | 79 | 1013.1 |
| 20260901172936 | 63 | 179 | 2.6 | 6.1 | 0.00 | 0.00 | 0.00 | 78 | 1013.0 |
| 20260901172431 | 64 | 206 | 4.3 | 6.1 | 0.00 | 0.00 | 0.00 | 77 | 1013.2 |
| 20260901171929 | 64 | 176 | 2.6 | 5.2 | 0.00 | 0.00 | 0.00 | 77 | 1013.3 |
| 20260901171427 | 63 | 186 | 1.7 | 5.2 | 0.00 | 0.00 | 0.00 | 79 | 1012.9 |
| 20260901170926 | 63 | 179 | 4.3 | 6.1 | 0.00 | 0.00 | 0.00 | 79 | 1013.1 |
| 20260901170416 | 62 | 180 | 0.9 | 6.1 | 0.00 | 0.00 | 0.00 | 80 | 1013.2 |
| 20260901165915 | 62 | 188 | 3.5 | 6.1 | 0.00 | 0.00 | 0.00 | 81 | 1013.1 |
| 20260901165409 | 62 | 187 | 3.5 | 6.1 | 0.00 | 0.00 | 0.00 | 81 | 1013.0 |
| 20260901164901 | 62 | 173 | 2.6 | 2.6 | 0.00 | 0.00 | 0.00 | 82 | 1013.3 |
| 20260901164355 | 61 | 212 | 3.5 | 5.2 | 0.00 | 0.00 | 0.00 | 82 | 1013.4 |
| 20260901163855 | 61 | 199 | 2.6 | 5.2 | 0.00 | 0.00 | 0.00 | 83 | 1013.4 |
| 20260901163350 | 61 | 172 | 0.0 | 2.6 | 0.00 | 0.00 | 0.00 | 84 | 1013.4 |
| 20260901162845 | 61 | 174 | 1.7 | 6.1 | 0.00 | 0.00 | 0.00 | 84 | 1013.4 |
| 20260901162344 | 61 | 170 | 3.5 | 4.3 | 0.00 | 0.00 | 0.00 | 84 | 1013.1 |
| 20260901161843 | 60 | 173 | 1.7 | 5.2 | 0.00 | 0.00 | 0.00 | 85 | 1013.4 |
| 20260901161338 | 60 | 188 | 2.6 | 4.3 | 0.00 | 0.00 | 0.00 | 85 | 1013.4 |
| 20260901160833 | 60 | 185 | 0.0 | 5.2 | 0.00 | 0.00 | 0.00 | 85 | 1013.4 |
| 20260901160330 | 60 | 209 | 2.6 | 5.2 | 0.00 | 0.00 | 0.00 | 86 | 1013.3 |
| 20260901155828 | 60 | 161 | 1.7 | 6.1 | 0.00 | 0.00 | 0.00 | 86 | 1013.4 |
| 20260901155323 | 60 | 131 | 0.9 | 2.6 | 0.00 | 0.00 | 0.00 | 87 | 1013.3 |
| 20260901154820 | 60 | 204 | 2.6 | 2.6 | 0.00 | 0.00 | 0.00 | 87 | 1013.5 |
| 20260901154313 | 60 | 168 | 1.7 | 2.6 | 0.00 | 0.00 | 0.00 | 88 | 1013.4 |
| 20260901153808 | 59 | 190 | 2.6 | 5.2 | 0.00 | 0.00 | 0.00 | 88 | 1013.5 |
| 20260901153308 | 59 | 155 | 2.6 | 2.6 | 0.00 | 0.00 | 0.00 | 89 | 1013.7 |
| 20260901152807 | 59 | 207 | 1.7 | 4.3 | 0.00 | 0.00 | 0.00 | 89 | 1013.6 |
| 20260901152306 | 59 | 155 | 0.9 | 2.6 | 0.00 | 0.00 | 0.00 | 89 | 1013.7 |
| 20260901151802 | 59 | 135 | 2.6 | 2.6 | 0.00 | 0.00 | 0.00 | 89 | 1013.4 |
| 20260901151301 | 59 | 190 | 2.6 | 2.6 | 0.00 | 0.00 | 0.00 | 90 | 1013.5 |
| 20260901150755 | 59 | 187 | 1.7 | 2.6 | 0.00 | 0.00 | 0.00 | 90 | 1013.7 |
| 20260901150253 | 59 | 193 | 2.6 | 2.6 | 0.00 | 0.00 | 0.00 | 90 | 1013.5 |
| 20260901145751 | 59 | 189 | 4.3 | 5.2 | 0.00 | 0.00 | 0.00 | 91 | 1013.6 |
| 20260901145245 | 59 | 169 | 2.6 | 4.3 | 0.00 | 0.00 | 0.00 | 91 | 1013.3 |
| 20260901144741 | 58 | 200 | 2.6 | 2.6 | 0.00 | 0.00 | 0.00 | 92 | 1013.6 |
| 20260901144236 | 58 | 229 | 2.6 | 5.2 | 0.00 | 0.00 | 0.00 | 92 | 1013.2 |
| 20260901143732 | 58 | 183 | 1.7 | 6.1 | 0.00 | 0.00 | 0.00 | 93 | 1013.3 |
| 20260901143227 | 58 | 161 | 3.5 | 5.2 | 0.00 | 0.00 | 0.00 | 93 | 1013.2 |
| 20260901142724 | 58 | 205 | 0.9 | 2.6 | 0.00 | 0.00 | 0.00 | 94 | 1013.2 |
| 20260901142223 | 58 | 173 | 0.9 | 0.9 | 0.00 | 0.00 | 0.00 | 94 | 1013.2 |
| 20260901141719 | 58 | 180 | 0.9 | 2.6 | 0.00 | 0.00 | 0.00 | 95 | 1013.2 |
| 20260901141219 | 57 | 169 | 0.9 | 1.7 | 0.00 | 0.00 | 0.00 | 95 | 1013.0 |
| 20260901140718 | 57 | 146 | 1.7 | 1.7 | 0.00 | 0.00 | 0.00 | 95 | 1013.0 |
| 20260901140217 | 57 | 169 | 2.6 | 2.6 | 0.00 | 0.00 | 0.00 | 96 | 1012.9 |
| 20260901135712 | 57 | 172 | 0.9 | 2.6 | 0.00 | 0.00 | 0.00 | 96 | 1012.7 |
| 20260901135211 | 57 | 203 | 2.6 | 4.3 | 0.00 | 0.00 | 0.00 | 96 | 1013.1 |
| 20260901134708 | 57 | 150 | 0.9 | 2.6 | 0.00 | 0.00 | 0.00 | 96 | 1012.8 |
| 20260901134202 | 56 | 186 | 0.9 | 1.7 | 0.00 | 0.00 | 0.00 | 96 | 1012.8 |
| 20260901133702 | 56 | 173 | 0.0 | 2.6 | 0.00 | 0.00 | 0.00 | 96 | 1012.9 |
| 20260901133201 | 56 | 157 | 0.0 | 0.9 | 0.00 | 0.00 | 0.00 | 96 | 1013.1 |
| 20260901132700 | 55 | 150 | 0.9 | 2.6 | 0.00 | 0.00 | 0.00 | 97 | 1013.1 |
| 20260901132155 | 54 | 136 | 0.9 | 2.6 | 0.00 | 0.00 | 0.00 | 97 | 1012.9 |
| 20260901131650 | 53 | 162 | 0.0 | 0.0 | 0.00 | 0.00 | 0.00 | 96 | 1013.0 |
| 20260901131149 | 54 | 161 | 0.0 | 0.0 | 0.00 | 0.00 | 0.00 | 96 | 1012.8 |
| 20260901130644 | 54 | 149 | 0.0 | 0.0 | 0.00 | 0.00 | 0.00 | 96 | 1012.8 |
| 20260901130143 | 53 | 152 | 0.0 | 0.0 | 0.00 | 0.00 | 0.00 | 96 | 1013.1 |
| 20260901125641 | 53 | 152 | 0.0 | 0.0 | 0.00 | 0.00 | 0.00 | 96 | 1012.8 |
| 20260901125136 | 54 | 146 | 0.0 | 0.0 | 0.00 | 0.00 | 0.00 | 96 | 1012.9 |
| 20260901124632 | 53 | 155 | 0.0 | 0.0 | 0.00 | 0.00 | 0.00 | 96 | 1012.8 |
| 20260901124131 | 53 | 169 | 0.0 | 0.0 | 0.00 | 0.00 | 0.00 | 96 | 1012.7 |
| 20260901123626 | 53 | 154 | 0.0 | 0.0 | 0.00 | 0.00 | 0.00 | 96 | 1012.7 |
| 20260901123126 | 54 | 154 | 0.0 | 0.0 | 0.00 | 0.00 | 0.00 | 96 | 1012.7 |
| 20260901122624 | 54 | 154 | 0.0 | 0.0 | 0.00 | 0.00 | 0.00 | 96 | 1012.7 |
| 20260901122119 | 54 | 153 | 0.0 | 0.0 | 0.00 | 0.00 | 0.00 | 96 | 1012.4 |
| 20260901121614 | 54 | 153 | 0.0 | 0.0 | 0.00 | 0.00 | 0.00 | 96 | 1012.7 |
| 20260901121109 | 54 | 153 | 0.0 | 0.0 | 0.00 | 0.00 | 0.00 | 96 | 1012.7 |
| 20260901120608 | 54 | 146 | 0.0 | 0.0 | 0.00 | 0.00 | 0.00 | 96 | 1012.5 |
| 20260901120104 | 54 | 157 | 0.0 | 0.0 | 0.00 | 0.00 | 0.00 | 96 | 1012.5 |
| 20260901115559 | 54 | 147 | 0.0 | 0.0 | 0.00 | 0.00 | 0.00 | 96 | 1012.3 |
| 20260901115055 | 54 | 154 | 0.0 | 0.0 | 0.00 | 0.00 | 0.00 | 96 | 1012.1 |
| 20260901114551 | 54 | 148 | 0.0 | 0.0 | 0.00 | 0.00 | 0.00 | 96 | 1012.3 |
| 20260901114050 | 54 | 154 | 0.0 | 0.0 | 0.00 | 0.00 | 0.00 | 96 | 1012.2 |
| 20260901113549 | 54 | 151 | 0.0 | 0.0 | 0.00 | 0.00 | 0.00 | 96 | 1012.2 |